<?xml version="1.0" encoding="UTF-8" standalone="no" ?>
<gpx xmlns="http://www.topografix.com/GPX/1/1" xmlns:xsi="http://www.w3.org/2001/XMLSchema-instance" xsi:schemaLocation="http://www.topografix.com/GPX/1/1 http://www.topografix.com/GPX/1/1/gpx.xsd" version="1.1" creator="VisuGPX - https://www.visugpx.com">
  <metadata>
    <name>Mont de St Guilhem</name>
    <desc><![CDATA[grp_trc:]]></desc>
  </metadata>
  <trk>
    <name><![CDATA[24 avr. 2024]]></name>
    <desc><![CDATA[comment ...]]></desc>
    <extensions>
      <line xmlns="http://www.topografix.com/GPX/gpx_style/0/2">
        <color>0000FF</color>
        <width>4</width>
      </line>
    </extensions>
    <trkseg>
      <trkpt lat="43.75044" lon="3.59242">
        <ele>81.2</ele>
        <time>2024-04-24T15:21:29Z</time>
      </trkpt>
      <trkpt lat="43.7507" lon="3.59229">
        <ele>83.8</ele>
        <time>2024-04-24T15:21:29Z</time>
      </trkpt>
      <trkpt lat="43.75112" lon="3.59156">
        <ele>84.9</ele>
        <time>2024-04-24T15:21:29Z</time>
      </trkpt>
      <trkpt lat="43.75138" lon="3.5913">
        <ele>86.7</ele>
        <time>2024-04-24T15:21:29Z</time>
      </trkpt>
      <trkpt lat="43.75165" lon="3.59122">
        <ele>86.9</ele>
        <time>2024-04-24T15:21:29Z</time>
      </trkpt>
      <trkpt lat="43.75175" lon="3.5916">
        <ele>87.1</ele>
        <time>2024-04-24T15:21:29Z</time>
      </trkpt>
      <trkpt lat="43.75203" lon="3.59182">
        <ele>89.8</ele>
        <time>2024-04-24T15:21:29Z</time>
      </trkpt>
      <trkpt lat="43.7523" lon="3.59158">
        <ele>90.4</ele>
        <time>2024-04-24T15:21:29Z</time>
      </trkpt>
      <trkpt lat="43.75256" lon="3.59158">
        <ele>92</ele>
        <time>2024-04-24T15:21:29Z</time>
      </trkpt>
      <trkpt lat="43.75282" lon="3.59145">
        <ele>93.1</ele>
        <time>2024-04-24T15:21:29Z</time>
      </trkpt>
      <trkpt lat="43.75309" lon="3.59113">
        <ele>93.1</ele>
        <time>2024-04-24T15:21:29Z</time>
      </trkpt>
      <trkpt lat="43.75321" lon="3.59077">
        <ele>99.9</ele>
        <time>2024-04-24T15:21:29Z</time>
      </trkpt>
      <trkpt lat="43.7532" lon="3.5904">
        <ele>97.8</ele>
        <time>2024-04-24T15:21:29Z</time>
      </trkpt>
      <trkpt lat="43.75346" lon="3.59019">
        <ele>98</ele>
        <time>2024-04-24T15:21:29Z</time>
      </trkpt>
      <trkpt lat="43.75372" lon="3.59027">
        <ele>99.2</ele>
        <time>2024-04-24T15:21:29Z</time>
      </trkpt>
      <trkpt lat="43.75383" lon="3.58991">
        <ele>100.5</ele>
        <time>2024-04-24T15:21:29Z</time>
      </trkpt>
      <trkpt lat="43.75462" lon="3.58991">
        <ele>102.6</ele>
        <time>2024-04-24T15:21:29Z</time>
      </trkpt>
      <trkpt lat="43.75489" lon="3.58918">
        <ele>105.4</ele>
        <time>2024-04-24T15:21:29Z</time>
      </trkpt>
      <trkpt lat="43.75492" lon="3.58808">
        <ele>103.9</ele>
        <time>2024-04-24T15:21:29Z</time>
      </trkpt>
      <trkpt lat="43.75476" lon="3.58772">
        <ele>104.9</ele>
        <time>2024-04-24T15:21:29Z</time>
      </trkpt>
      <trkpt lat="43.7545" lon="3.58744">
        <ele>105.5</ele>
        <time>2024-04-24T15:21:29Z</time>
      </trkpt>
      <trkpt lat="43.75431" lon="3.58708">
        <ele>109.2</ele>
        <time>2024-04-24T15:21:29Z</time>
      </trkpt>
      <trkpt lat="43.75433" lon="3.58671">
        <ele>110.2</ele>
        <time>2024-04-24T15:21:29Z</time>
      </trkpt>
      <trkpt lat="43.75475" lon="3.5856">
        <ele>110.2</ele>
        <time>2024-04-24T15:21:29Z</time>
      </trkpt>
      <trkpt lat="43.75478" lon="3.58523">
        <ele>114.7</ele>
        <time>2024-04-24T15:21:29Z</time>
      </trkpt>
      <trkpt lat="43.75451" lon="3.58512">
        <ele>116.9</ele>
        <time>2024-04-24T15:21:29Z</time>
      </trkpt>
      <trkpt lat="43.75425" lon="3.58534">
        <ele>114.5</ele>
        <time>2024-04-24T15:21:29Z</time>
      </trkpt>
      <trkpt lat="43.75399" lon="3.5854">
        <ele>115.3</ele>
        <time>2024-04-24T15:21:29Z</time>
      </trkpt>
      <trkpt lat="43.75372" lon="3.58534">
        <ele>116</ele>
        <time>2024-04-24T15:21:29Z</time>
      </trkpt>
      <trkpt lat="43.75368" lon="3.58497">
        <ele>117.3</ele>
        <time>2024-04-24T15:21:29Z</time>
      </trkpt>
      <trkpt lat="43.75391" lon="3.58388">
        <ele>117.7</ele>
        <time>2024-04-24T15:21:29Z</time>
      </trkpt>
      <trkpt lat="43.75417" lon="3.58354">
        <ele>120.2</ele>
        <time>2024-04-24T15:21:29Z</time>
      </trkpt>
      <trkpt lat="43.75444" lon="3.58339">
        <ele>123.1</ele>
        <time>2024-04-24T15:21:29Z</time>
      </trkpt>
      <trkpt lat="43.7547" lon="3.58332">
        <ele>124.6</ele>
        <time>2024-04-24T15:21:29Z</time>
      </trkpt>
      <trkpt lat="43.75496" lon="3.58341">
        <ele>124.1</ele>
        <time>2024-04-24T15:21:29Z</time>
      </trkpt>
      <trkpt lat="43.75523" lon="3.58364">
        <ele>123.5</ele>
        <time>2024-04-24T15:21:29Z</time>
      </trkpt>
      <trkpt lat="43.75575" lon="3.58294">
        <ele>128.9</ele>
        <time>2024-04-24T15:21:29Z</time>
      </trkpt>
      <trkpt lat="43.75602" lon="3.58285">
        <ele>130.9</ele>
        <time>2024-04-24T15:21:29Z</time>
      </trkpt>
      <trkpt lat="43.75611" lon="3.58324">
        <ele>126.7</ele>
        <time>2024-04-24T15:21:29Z</time>
      </trkpt>
      <trkpt lat="43.75608" lon="3.58362">
        <ele>129.9</ele>
        <time>2024-04-24T15:21:29Z</time>
      </trkpt>
      <trkpt lat="43.75623" lon="3.58399">
        <ele>132.4</ele>
        <time>2024-04-24T15:21:29Z</time>
      </trkpt>
      <trkpt lat="43.7565" lon="3.58381">
        <ele>130.8</ele>
        <time>2024-04-24T15:21:29Z</time>
      </trkpt>
      <trkpt lat="43.75692" lon="3.58309">
        <ele>134.6</ele>
        <time>2024-04-24T15:21:29Z</time>
      </trkpt>
      <trkpt lat="43.75718" lon="3.58291">
        <ele>138.8</ele>
        <time>2024-04-24T15:21:29Z</time>
      </trkpt>
      <trkpt lat="43.7573" lon="3.58255">
        <ele>138.1</ele>
        <time>2024-04-24T15:21:29Z</time>
      </trkpt>
      <trkpt lat="43.75757" lon="3.58233">
        <ele>139.5</ele>
        <time>2024-04-24T15:21:29Z</time>
      </trkpt>
      <trkpt lat="43.75783" lon="3.58259">
        <ele>140.2</ele>
        <time>2024-04-24T15:21:29Z</time>
      </trkpt>
      <trkpt lat="43.75808" lon="3.58319">
        <ele>141.4</ele>
        <time>2024-04-24T15:21:29Z</time>
      </trkpt>
      <trkpt lat="43.75834" lon="3.58332">
        <ele>141.9</ele>
        <time>2024-04-24T15:21:29Z</time>
      </trkpt>
      <trkpt lat="43.75861" lon="3.5833">
        <ele>143</ele>
        <time>2024-04-24T15:21:29Z</time>
      </trkpt>
      <trkpt lat="43.75884" lon="3.58257">
        <ele>146.2</ele>
        <time>2024-04-24T15:21:29Z</time>
      </trkpt>
      <trkpt lat="43.7591" lon="3.58227">
        <ele>146.3</ele>
        <time>2024-04-24T15:21:29Z</time>
      </trkpt>
      <trkpt lat="43.75936" lon="3.58223">
        <ele>146.6</ele>
        <time>2024-04-24T15:21:29Z</time>
      </trkpt>
      <trkpt lat="43.75963" lon="3.58229">
        <ele>148.2</ele>
        <time>2024-04-24T15:21:29Z</time>
      </trkpt>
      <trkpt lat="43.76068" lon="3.58313">
        <ele>153</ele>
        <time>2024-04-24T15:21:29Z</time>
      </trkpt>
      <trkpt lat="43.76095" lon="3.583">
        <ele>154.9</ele>
        <time>2024-04-24T15:21:29Z</time>
      </trkpt>
      <trkpt lat="43.76118" lon="3.58263">
        <ele>154.2</ele>
        <time>2024-04-24T15:21:29Z</time>
      </trkpt>
      <trkpt lat="43.7609" lon="3.58285">
        <ele>154.6</ele>
        <time>2024-04-24T15:21:29Z</time>
      </trkpt>
      <trkpt lat="43.76064" lon="3.58281">
        <ele>154.1</ele>
        <time>2024-04-24T15:21:29Z</time>
      </trkpt>
      <trkpt lat="43.76043" lon="3.58206">
        <ele>167.1</ele>
        <time>2024-04-24T15:21:29Z</time>
      </trkpt>
      <trkpt lat="43.76046" lon="3.58133">
        <ele>173.9</ele>
        <time>2024-04-24T15:21:29Z</time>
      </trkpt>
      <trkpt lat="43.76034" lon="3.5806">
        <ele>180.4</ele>
        <time>2024-04-24T15:21:29Z</time>
      </trkpt>
      <trkpt lat="43.76042" lon="3.58023">
        <ele>187.1</ele>
        <time>2024-04-24T15:21:29Z</time>
      </trkpt>
      <trkpt lat="43.76059" lon="3.57987">
        <ele>187.2</ele>
        <time>2024-04-24T15:21:29Z</time>
      </trkpt>
      <trkpt lat="43.76085" lon="3.57972">
        <ele>194.1</ele>
        <time>2024-04-24T15:21:29Z</time>
      </trkpt>
      <trkpt lat="43.76107" lon="3.57935">
        <ele>203.5</ele>
        <time>2024-04-24T15:21:29Z</time>
      </trkpt>
      <trkpt lat="43.76133" lon="3.57922">
        <ele>205.6</ele>
        <time>2024-04-24T15:21:29Z</time>
      </trkpt>
      <trkpt lat="43.76147" lon="3.57886">
        <ele>207.8</ele>
        <time>2024-04-24T15:21:29Z</time>
      </trkpt>
      <trkpt lat="43.76259" lon="3.57703">
        <ele>233.5</ele>
        <time>2024-04-24T15:21:29Z</time>
      </trkpt>
      <trkpt lat="43.76232" lon="3.5771">
        <ele>239</ele>
        <time>2024-04-24T15:21:29Z</time>
      </trkpt>
      <trkpt lat="43.76209" lon="3.57746">
        <ele>231.7</ele>
        <time>2024-04-24T15:21:29Z</time>
      </trkpt>
      <trkpt lat="43.75971" lon="3.57828">
        <ele>266.4</ele>
        <time>2024-04-24T15:21:29Z</time>
      </trkpt>
      <trkpt lat="43.75919" lon="3.57897">
        <ele>273.6</ele>
        <time>2024-04-24T15:21:29Z</time>
      </trkpt>
      <trkpt lat="43.75893" lon="3.57909">
        <ele>276.9</ele>
        <time>2024-04-24T15:21:29Z</time>
      </trkpt>
      <trkpt lat="43.75882" lon="3.57873">
        <ele>279</ele>
        <time>2024-04-24T15:21:29Z</time>
      </trkpt>
      <trkpt lat="43.75957" lon="3.57727">
        <ele>283.2</ele>
        <time>2024-04-24T15:21:29Z</time>
      </trkpt>
      <trkpt lat="43.76054" lon="3.5759">
        <ele>292.5</ele>
        <time>2024-04-24T15:21:29Z</time>
      </trkpt>
      <trkpt lat="43.76054" lon="3.57517">
        <ele>296.3</ele>
        <time>2024-04-24T15:21:29Z</time>
      </trkpt>
      <trkpt lat="43.76043" lon="3.57444">
        <ele>298.7</ele>
        <time>2024-04-24T15:21:29Z</time>
      </trkpt>
      <trkpt lat="43.76005" lon="3.57399">
        <ele>297.6</ele>
        <time>2024-04-24T15:21:29Z</time>
      </trkpt>
      <trkpt lat="43.75998" lon="3.5736">
        <ele>300.2</ele>
        <time>2024-04-24T15:21:29Z</time>
      </trkpt>
      <trkpt lat="43.75946" lon="3.57315">
        <ele>301.1</ele>
        <time>2024-04-24T15:21:29Z</time>
      </trkpt>
      <trkpt lat="43.75919" lon="3.57302">
        <ele>302.3</ele>
        <time>2024-04-24T15:21:29Z</time>
      </trkpt>
      <trkpt lat="43.75893" lon="3.5727">
        <ele>302</ele>
        <time>2024-04-24T15:21:29Z</time>
      </trkpt>
      <trkpt lat="43.75851" lon="3.57161">
        <ele>301.8</ele>
        <time>2024-04-24T15:21:29Z</time>
      </trkpt>
      <trkpt lat="43.75848" lon="3.57124">
        <ele>303.2</ele>
        <time>2024-04-24T15:21:29Z</time>
      </trkpt>
      <trkpt lat="43.75856" lon="3.57088">
        <ele>306.9</ele>
        <time>2024-04-24T15:21:29Z</time>
      </trkpt>
      <trkpt lat="43.7583" lon="3.5707">
        <ele>304.7</ele>
        <time>2024-04-24T15:21:29Z</time>
      </trkpt>
      <trkpt lat="43.75819" lon="3.57034">
        <ele>306.1</ele>
        <time>2024-04-24T15:21:29Z</time>
      </trkpt>
      <trkpt lat="43.75794" lon="3.56997">
        <ele>305.7</ele>
        <time>2024-04-24T15:21:29Z</time>
      </trkpt>
      <trkpt lat="43.75783" lon="3.56957">
        <ele>306.1</ele>
        <time>2024-04-24T15:21:29Z</time>
      </trkpt>
      <trkpt lat="43.75786" lon="3.5692">
        <ele>307.1</ele>
        <time>2024-04-24T15:21:29Z</time>
      </trkpt>
      <trkpt lat="43.7578" lon="3.56847">
        <ele>297.8</ele>
        <time>2024-04-24T15:21:29Z</time>
      </trkpt>
      <trkpt lat="43.75783" lon="3.56811">
        <ele>287.8</ele>
        <time>2024-04-24T15:21:29Z</time>
      </trkpt>
      <trkpt lat="43.75809" lon="3.56781">
        <ele>284.7</ele>
        <time>2024-04-24T15:21:29Z</time>
      </trkpt>
      <trkpt lat="43.75836" lon="3.56772">
        <ele>281.5</ele>
        <time>2024-04-24T15:21:29Z</time>
      </trkpt>
      <trkpt lat="43.75862" lon="3.56772">
        <ele>271.9</ele>
        <time>2024-04-24T15:21:29Z</time>
      </trkpt>
      <trkpt lat="43.75888" lon="3.56787">
        <ele>272.9</ele>
        <time>2024-04-24T15:21:29Z</time>
      </trkpt>
      <trkpt lat="43.75915" lon="3.56785">
        <ele>271.6</ele>
        <time>2024-04-24T15:21:29Z</time>
      </trkpt>
      <trkpt lat="43.75941" lon="3.56766">
        <ele>263.4</ele>
        <time>2024-04-24T15:21:29Z</time>
      </trkpt>
      <trkpt lat="43.75862" lon="3.56676">
        <ele>254.9</ele>
        <time>2024-04-24T15:21:29Z</time>
      </trkpt>
      <trkpt lat="43.75836" lon="3.56669">
        <ele>254.3</ele>
        <time>2024-04-24T15:21:29Z</time>
      </trkpt>
      <trkpt lat="43.75809" lon="3.56652">
        <ele>256.2</ele>
        <time>2024-04-24T15:21:29Z</time>
      </trkpt>
      <trkpt lat="43.7576" lon="3.56596">
        <ele>265.8</ele>
        <time>2024-04-24T15:21:29Z</time>
      </trkpt>
      <trkpt lat="43.75737" lon="3.5656">
        <ele>273.3</ele>
        <time>2024-04-24T15:21:29Z</time>
      </trkpt>
      <trkpt lat="43.7571" lon="3.56528">
        <ele>275.5</ele>
        <time>2024-04-24T15:21:29Z</time>
      </trkpt>
      <trkpt lat="43.75684" lon="3.5651">
        <ele>276.9</ele>
        <time>2024-04-24T15:21:29Z</time>
      </trkpt>
      <trkpt lat="43.75657" lon="3.56482">
        <ele>283.2</ele>
        <time>2024-04-24T15:21:29Z</time>
      </trkpt>
      <trkpt lat="43.75636" lon="3.56373">
        <ele>292.3</ele>
        <time>2024-04-24T15:21:29Z</time>
      </trkpt>
      <trkpt lat="43.75636" lon="3.56337">
        <ele>294.1</ele>
        <time>2024-04-24T15:21:29Z</time>
      </trkpt>
      <trkpt lat="43.75651" lon="3.563">
        <ele>300.8</ele>
        <time>2024-04-24T15:21:29Z</time>
      </trkpt>
      <trkpt lat="43.75634" lon="3.56264">
        <ele>298.9</ele>
        <time>2024-04-24T15:21:29Z</time>
      </trkpt>
      <trkpt lat="43.75634" lon="3.56227">
        <ele>302.5</ele>
        <time>2024-04-24T15:21:29Z</time>
      </trkpt>
      <trkpt lat="43.75661" lon="3.56223">
        <ele>307.8</ele>
        <time>2024-04-24T15:21:29Z</time>
      </trkpt>
      <trkpt lat="43.75687" lon="3.5621">
        <ele>314.3</ele>
        <time>2024-04-24T15:21:29Z</time>
      </trkpt>
      <trkpt lat="43.75737" lon="3.56276">
        <ele>319.6</ele>
        <time>2024-04-24T15:21:29Z</time>
      </trkpt>
      <trkpt lat="43.75791" lon="3.56257">
        <ele>325.1</ele>
        <time>2024-04-24T15:21:29Z</time>
      </trkpt>
      <trkpt lat="43.75817" lon="3.56229">
        <ele>328.7</ele>
        <time>2024-04-24T15:21:29Z</time>
      </trkpt>
      <trkpt lat="43.75837" lon="3.56193">
        <ele>331.7</ele>
        <time>2024-04-24T15:21:29Z</time>
      </trkpt>
      <trkpt lat="43.75864" lon="3.56186">
        <ele>336</ele>
        <time>2024-04-24T15:21:29Z</time>
      </trkpt>
      <trkpt lat="43.7589" lon="3.56206">
        <ele>339.6</ele>
        <time>2024-04-24T15:21:29Z</time>
      </trkpt>
      <trkpt lat="43.75901" lon="3.56169">
        <ele>341</ele>
        <time>2024-04-24T15:21:29Z</time>
      </trkpt>
      <trkpt lat="43.7596" lon="3.56058">
        <ele>355.3</ele>
        <time>2024-04-24T15:21:29Z</time>
      </trkpt>
      <trkpt lat="43.76014" lon="3.55884">
        <ele>383.3</ele>
        <time>2024-04-24T15:21:29Z</time>
      </trkpt>
      <trkpt lat="43.76022" lon="3.55845">
        <ele>392.3</ele>
        <time>2024-04-24T15:21:29Z</time>
      </trkpt>
      <trkpt lat="43.76037" lon="3.55734">
        <ele>402.3</ele>
        <time>2024-04-24T15:21:29Z</time>
      </trkpt>
      <trkpt lat="43.76037" lon="3.55661">
        <ele>407.4</ele>
        <time>2024-04-24T15:21:29Z</time>
      </trkpt>
      <trkpt lat="43.76056" lon="3.55588">
        <ele>420.6</ele>
        <time>2024-04-24T15:21:29Z</time>
      </trkpt>
      <trkpt lat="43.76108" lon="3.55556">
        <ele>421.8</ele>
        <time>2024-04-24T15:21:29Z</time>
      </trkpt>
      <trkpt lat="43.76135" lon="3.55547">
        <ele>423.4</ele>
        <time>2024-04-24T15:21:29Z</time>
      </trkpt>
      <trkpt lat="43.76155" lon="3.5551">
        <ele>436.6</ele>
        <time>2024-04-24T15:21:29Z</time>
      </trkpt>
      <trkpt lat="43.76181" lon="3.55498">
        <ele>434.5</ele>
        <time>2024-04-24T15:21:29Z</time>
      </trkpt>
      <trkpt lat="43.76234" lon="3.55431">
        <ele>455.7</ele>
        <time>2024-04-24T15:21:29Z</time>
      </trkpt>
      <trkpt lat="43.7626" lon="3.5542">
        <ele>458.6</ele>
        <time>2024-04-24T15:21:29Z</time>
      </trkpt>
      <trkpt lat="43.76287" lon="3.55392">
        <ele>469.6</ele>
        <time>2024-04-24T15:21:29Z</time>
      </trkpt>
      <trkpt lat="43.76313" lon="3.55403">
        <ele>467.2</ele>
        <time>2024-04-24T15:21:29Z</time>
      </trkpt>
      <trkpt lat="43.76339" lon="3.55422">
        <ele>469.6</ele>
        <time>2024-04-24T15:21:29Z</time>
      </trkpt>
      <trkpt lat="43.76366" lon="3.55433">
        <ele>473.1</ele>
        <time>2024-04-24T15:21:29Z</time>
      </trkpt>
      <trkpt lat="43.76339" lon="3.55401">
        <ele>477.9</ele>
        <time>2024-04-24T15:21:29Z</time>
      </trkpt>
      <trkpt lat="43.76366" lon="3.55388">
        <ele>494.2</ele>
        <time>2024-04-24T15:21:29Z</time>
      </trkpt>
      <trkpt lat="43.76445" lon="3.55455">
        <ele>512.4</ele>
        <time>2024-04-24T15:21:29Z</time>
      </trkpt>
      <trkpt lat="43.76474" lon="3.5545">
        <ele>515.2</ele>
        <time>2024-04-24T15:21:29Z</time>
      </trkpt>
      <trkpt lat="43.76501" lon="3.55444">
        <ele>517.4</ele>
        <time>2024-04-24T15:21:29Z</time>
      </trkpt>
      <trkpt lat="43.76527" lon="3.55437">
        <ele>526.8</ele>
        <time>2024-04-24T15:21:29Z</time>
      </trkpt>
      <trkpt lat="43.7658" lon="3.55474">
        <ele>535.1</ele>
        <time>2024-04-24T15:21:29Z</time>
      </trkpt>
      <trkpt lat="43.76597" lon="3.5551">
        <ele>538</ele>
        <time>2024-04-24T15:21:29Z</time>
      </trkpt>
      <trkpt lat="43.766" lon="3.55547">
        <ele>539.5</ele>
        <time>2024-04-24T15:21:29Z</time>
      </trkpt>
      <trkpt lat="43.76645" lon="3.55695">
        <ele>564.6</ele>
        <time>2024-04-24T15:21:29Z</time>
      </trkpt>
      <trkpt lat="43.76662" lon="3.55659">
        <ele>576.3</ele>
        <time>2024-04-24T15:21:29Z</time>
      </trkpt>
      <trkpt lat="43.7668" lon="3.55586">
        <ele>585.6</ele>
        <time>2024-04-24T15:21:29Z</time>
      </trkpt>
      <trkpt lat="43.76705" lon="3.55528">
        <ele>590.9</ele>
        <time>2024-04-24T15:21:29Z</time>
      </trkpt>
      <trkpt lat="43.767" lon="3.55491">
        <ele>587</ele>
        <time>2024-04-24T15:21:29Z</time>
      </trkpt>
      <trkpt lat="43.7668" lon="3.55418">
        <ele>586.4</ele>
        <time>2024-04-24T15:21:29Z</time>
      </trkpt>
      <trkpt lat="43.76654" lon="3.55386">
        <ele>587.2</ele>
        <time>2024-04-24T15:21:29Z</time>
      </trkpt>
      <trkpt lat="43.76496" lon="3.55274">
        <ele>582.7</ele>
        <time>2024-04-24T15:21:29Z</time>
      </trkpt>
      <trkpt lat="43.76476" lon="3.55238">
        <ele>584.7</ele>
        <time>2024-04-24T15:21:29Z</time>
      </trkpt>
      <trkpt lat="43.76423" lon="3.55186">
        <ele>581.9</ele>
        <time>2024-04-24T15:21:29Z</time>
      </trkpt>
      <trkpt lat="43.76409" lon="3.5515">
        <ele>586.7</ele>
        <time>2024-04-24T15:21:29Z</time>
      </trkpt>
      <trkpt lat="43.76412" lon="3.55113">
        <ele>595.6</ele>
        <time>2024-04-24T15:21:29Z</time>
      </trkpt>
      <trkpt lat="43.76386" lon="3.55101">
        <ele>594.2</ele>
        <time>2024-04-24T15:21:29Z</time>
      </trkpt>
      <trkpt lat="43.76358" lon="3.55103">
        <ele>593.5</ele>
        <time>2024-04-24T15:21:29Z</time>
      </trkpt>
      <trkpt lat="43.76305" lon="3.55129">
        <ele>594</ele>
        <time>2024-04-24T15:21:29Z</time>
      </trkpt>
      <trkpt lat="43.76249" lon="3.55182">
        <ele>594</ele>
        <time>2024-04-24T15:21:29Z</time>
      </trkpt>
      <trkpt lat="43.76223" lon="3.55189">
        <ele>592.8</ele>
        <time>2024-04-24T15:21:29Z</time>
      </trkpt>
      <trkpt lat="43.76197" lon="3.55167">
        <ele>588.7</ele>
        <time>2024-04-24T15:21:29Z</time>
      </trkpt>
      <trkpt lat="43.76177" lon="3.55094">
        <ele>586.7</ele>
        <time>2024-04-24T15:21:29Z</time>
      </trkpt>
      <trkpt lat="43.76226" lon="3.55023">
        <ele>583.5</ele>
        <time>2024-04-24T15:21:29Z</time>
      </trkpt>
      <trkpt lat="43.76253" lon="3.55008">
        <ele>586.5</ele>
        <time>2024-04-24T15:21:29Z</time>
      </trkpt>
      <trkpt lat="43.76279" lon="3.54978">
        <ele>584.8</ele>
        <time>2024-04-24T15:21:29Z</time>
      </trkpt>
      <trkpt lat="43.76307" lon="3.54961">
        <ele>588.6</ele>
        <time>2024-04-24T15:21:29Z</time>
      </trkpt>
      <trkpt lat="43.76332" lon="3.54923">
        <ele>589.1</ele>
        <time>2024-04-24T15:21:29Z</time>
      </trkpt>
      <trkpt lat="43.76358" lon="3.5485">
        <ele>592</ele>
        <time>2024-04-24T15:21:29Z</time>
      </trkpt>
      <trkpt lat="43.76363" lon="3.54813">
        <ele>595.6</ele>
        <time>2024-04-24T15:21:29Z</time>
      </trkpt>
      <trkpt lat="43.76373" lon="3.54777">
        <ele>592.9</ele>
        <time>2024-04-24T15:21:29Z</time>
      </trkpt>
      <trkpt lat="43.7635" lon="3.5474">
        <ele>596.6</ele>
        <time>2024-04-24T15:21:29Z</time>
      </trkpt>
      <trkpt lat="43.76336" lon="3.54704">
        <ele>598.4</ele>
        <time>2024-04-24T15:21:29Z</time>
      </trkpt>
      <trkpt lat="43.76325" lon="3.54631">
        <ele>592.7</ele>
        <time>2024-04-24T15:21:29Z</time>
      </trkpt>
      <trkpt lat="43.76299" lon="3.54607">
        <ele>594.3</ele>
        <time>2024-04-24T15:21:29Z</time>
      </trkpt>
      <trkpt lat="43.76287" lon="3.54571">
        <ele>597.4</ele>
        <time>2024-04-24T15:21:29Z</time>
      </trkpt>
      <trkpt lat="43.76294" lon="3.54493">
        <ele>598</ele>
        <time>2024-04-24T15:21:29Z</time>
      </trkpt>
      <trkpt lat="43.76284" lon="3.5442">
        <ele>596.2</ele>
        <time>2024-04-24T15:21:29Z</time>
      </trkpt>
      <trkpt lat="43.76267" lon="3.54384">
        <ele>593.1</ele>
        <time>2024-04-24T15:21:29Z</time>
      </trkpt>
      <trkpt lat="43.76214" lon="3.54341">
        <ele>591.1</ele>
        <time>2024-04-24T15:21:29Z</time>
      </trkpt>
      <trkpt lat="43.76189" lon="3.54229">
        <ele>587</ele>
        <time>2024-04-24T15:21:29Z</time>
      </trkpt>
      <trkpt lat="43.76136" lon="3.5418">
        <ele>578.7</ele>
        <time>2024-04-24T15:21:29Z</time>
      </trkpt>
      <trkpt lat="43.76119" lon="3.54144">
        <ele>584.3</ele>
        <time>2024-04-24T15:21:29Z</time>
      </trkpt>
      <trkpt lat="43.76139" lon="3.54071">
        <ele>574.2</ele>
        <time>2024-04-24T15:21:29Z</time>
      </trkpt>
      <trkpt lat="43.76135" lon="3.54034">
        <ele>569.9</ele>
        <time>2024-04-24T15:21:29Z</time>
      </trkpt>
      <trkpt lat="43.76144" lon="3.53998">
        <ele>568</ele>
        <time>2024-04-24T15:21:29Z</time>
      </trkpt>
      <trkpt lat="43.76175" lon="3.53925">
        <ele>563</ele>
        <time>2024-04-24T15:21:29Z</time>
      </trkpt>
      <trkpt lat="43.76174" lon="3.53888">
        <ele>560.4</ele>
        <time>2024-04-24T15:21:29Z</time>
      </trkpt>
      <trkpt lat="43.76161" lon="3.5385">
        <ele>556.9</ele>
        <time>2024-04-24T15:21:29Z</time>
      </trkpt>
      <trkpt lat="43.7616" lon="3.53813">
        <ele>549.7</ele>
        <time>2024-04-24T15:21:29Z</time>
      </trkpt>
      <trkpt lat="43.76133" lon="3.538">
        <ele>549.3</ele>
        <time>2024-04-24T15:21:29Z</time>
      </trkpt>
      <trkpt lat="43.76054" lon="3.53828">
        <ele>544.2</ele>
        <time>2024-04-24T15:21:29Z</time>
      </trkpt>
      <trkpt lat="43.76034" lon="3.53792">
        <ele>536.9</ele>
        <time>2024-04-24T15:21:29Z</time>
      </trkpt>
      <trkpt lat="43.76074" lon="3.5368">
        <ele>524.5</ele>
        <time>2024-04-24T15:21:29Z</time>
      </trkpt>
      <trkpt lat="43.76077" lon="3.53644">
        <ele>520.7</ele>
        <time>2024-04-24T15:21:29Z</time>
      </trkpt>
      <trkpt lat="43.76051" lon="3.53605">
        <ele>517.1</ele>
        <time>2024-04-24T15:21:29Z</time>
      </trkpt>
      <trkpt lat="43.76" lon="3.53577">
        <ele>508.3</ele>
        <time>2024-04-24T15:21:29Z</time>
      </trkpt>
      <trkpt lat="43.75984" lon="3.53614">
        <ele>507.9</ele>
        <time>2024-04-24T15:21:29Z</time>
      </trkpt>
      <trkpt lat="43.75905" lon="3.53682">
        <ele>500.7</ele>
        <time>2024-04-24T15:21:29Z</time>
      </trkpt>
      <trkpt lat="43.75826" lon="3.53729">
        <ele>518.2</ele>
        <time>2024-04-24T15:21:29Z</time>
      </trkpt>
      <trkpt lat="43.758" lon="3.53706">
        <ele>522.2</ele>
        <time>2024-04-24T15:21:29Z</time>
      </trkpt>
      <trkpt lat="43.75774" lon="3.53719">
        <ele>532.3</ele>
        <time>2024-04-24T15:21:29Z</time>
      </trkpt>
      <trkpt lat="43.75768" lon="3.53755">
        <ele>527.5</ele>
        <time>2024-04-24T15:21:29Z</time>
      </trkpt>
      <trkpt lat="43.75741" lon="3.53744">
        <ele>520.8</ele>
        <time>2024-04-24T15:21:29Z</time>
      </trkpt>
      <trkpt lat="43.75715" lon="3.53755">
        <ele>508.9</ele>
        <time>2024-04-24T15:21:29Z</time>
      </trkpt>
      <trkpt lat="43.75712" lon="3.53792">
        <ele>495.3</ele>
        <time>2024-04-24T15:21:29Z</time>
      </trkpt>
      <trkpt lat="43.75701" lon="3.53828">
        <ele>482.5</ele>
        <time>2024-04-24T15:21:29Z</time>
      </trkpt>
      <trkpt lat="43.75675" lon="3.53852">
        <ele>476</ele>
        <time>2024-04-24T15:21:29Z</time>
      </trkpt>
      <trkpt lat="43.75647" lon="3.53865">
        <ele>479.1</ele>
        <time>2024-04-24T15:21:29Z</time>
      </trkpt>
      <trkpt lat="43.75554" lon="3.53998">
        <ele>452.4</ele>
        <time>2024-04-24T15:21:29Z</time>
      </trkpt>
      <trkpt lat="43.75537" lon="3.54034">
        <ele>442.6</ele>
        <time>2024-04-24T15:21:29Z</time>
      </trkpt>
      <trkpt lat="43.75484" lon="3.54071">
        <ele>450.1</ele>
        <time>2024-04-24T15:21:29Z</time>
      </trkpt>
      <trkpt lat="43.7551" lon="3.5409">
        <ele>432.3</ele>
        <time>2024-04-24T15:21:29Z</time>
      </trkpt>
      <trkpt lat="43.75617" lon="3.54056">
        <ele>417.7</ele>
        <time>2024-04-24T15:21:29Z</time>
      </trkpt>
      <trkpt lat="43.75619" lon="3.54092">
        <ele>416.9</ele>
        <time>2024-04-24T15:21:29Z</time>
      </trkpt>
      <trkpt lat="43.75585" lon="3.54165">
        <ele>404.8</ele>
        <time>2024-04-24T15:21:29Z</time>
      </trkpt>
      <trkpt lat="43.75574" lon="3.54202">
        <ele>404.3</ele>
        <time>2024-04-24T15:21:29Z</time>
      </trkpt>
      <trkpt lat="43.7556" lon="3.54274">
        <ele>397.9</ele>
        <time>2024-04-24T15:21:29Z</time>
      </trkpt>
      <trkpt lat="43.75547" lon="3.54313">
        <ele>396.4</ele>
        <time>2024-04-24T15:21:29Z</time>
      </trkpt>
      <trkpt lat="43.75521" lon="3.5432">
        <ele>393.3</ele>
        <time>2024-04-24T15:21:29Z</time>
      </trkpt>
      <trkpt lat="43.75495" lon="3.54311">
        <ele>393.2</ele>
        <time>2024-04-24T15:21:29Z</time>
      </trkpt>
      <trkpt lat="43.75335" lon="3.54335">
        <ele>391</ele>
        <time>2024-04-24T15:21:29Z</time>
      </trkpt>
      <trkpt lat="43.75317" lon="3.54373">
        <ele>386.5</ele>
        <time>2024-04-24T15:21:29Z</time>
      </trkpt>
      <trkpt lat="43.75205" lon="3.54468">
        <ele>386.8</ele>
        <time>2024-04-24T15:21:29Z</time>
      </trkpt>
      <trkpt lat="43.75179" lon="3.54468">
        <ele>385.1</ele>
        <time>2024-04-24T15:21:29Z</time>
      </trkpt>
      <trkpt lat="43.75152" lon="3.54455">
        <ele>380.6</ele>
        <time>2024-04-24T15:21:29Z</time>
      </trkpt>
      <trkpt lat="43.75126" lon="3.54431">
        <ele>378.6</ele>
        <time>2024-04-24T15:21:29Z</time>
      </trkpt>
      <trkpt lat="43.751" lon="3.54427">
        <ele>375</ele>
        <time>2024-04-24T15:21:29Z</time>
      </trkpt>
      <trkpt lat="43.75073" lon="3.54433">
        <ele>375.7</ele>
        <time>2024-04-24T15:21:29Z</time>
      </trkpt>
      <trkpt lat="43.75048" lon="3.5447">
        <ele>372.5</ele>
        <time>2024-04-24T15:21:29Z</time>
      </trkpt>
      <trkpt lat="43.74974" lon="3.54654">
        <ele>367.7</ele>
        <time>2024-04-24T15:21:29Z</time>
      </trkpt>
      <trkpt lat="43.74948" lon="3.54646">
        <ele>364.2</ele>
        <time>2024-04-24T15:21:29Z</time>
      </trkpt>
      <trkpt lat="43.74869" lon="3.54553">
        <ele>349.1</ele>
        <time>2024-04-24T15:21:29Z</time>
      </trkpt>
      <trkpt lat="43.74842" lon="3.54545">
        <ele>351</ele>
        <time>2024-04-24T15:21:29Z</time>
      </trkpt>
      <trkpt lat="43.74789" lon="3.54573">
        <ele>344.7</ele>
        <time>2024-04-24T15:21:29Z</time>
      </trkpt>
      <trkpt lat="43.74763" lon="3.54575">
        <ele>342.8</ele>
        <time>2024-04-24T15:21:29Z</time>
      </trkpt>
      <trkpt lat="43.74737" lon="3.54568">
        <ele>340.5</ele>
        <time>2024-04-24T15:21:29Z</time>
      </trkpt>
      <trkpt lat="43.7471" lon="3.54551">
        <ele>335.1</ele>
        <time>2024-04-24T15:21:29Z</time>
      </trkpt>
      <trkpt lat="43.74703" lon="3.54513">
        <ele>326.5</ele>
        <time>2024-04-24T15:21:29Z</time>
      </trkpt>
      <trkpt lat="43.74723" lon="3.54476">
        <ele>323.2</ele>
        <time>2024-04-24T15:21:29Z</time>
      </trkpt>
      <trkpt lat="43.74746" lon="3.5436">
        <ele>319.9</ele>
        <time>2024-04-24T15:21:29Z</time>
      </trkpt>
      <trkpt lat="43.74755" lon="3.54144">
        <ele>315</ele>
        <time>2024-04-24T15:21:29Z</time>
      </trkpt>
      <trkpt lat="43.74727" lon="3.54133">
        <ele>317.5</ele>
        <time>2024-04-24T15:21:29Z</time>
      </trkpt>
      <trkpt lat="43.74543" lon="3.54146">
        <ele>320.4</ele>
        <time>2024-04-24T15:21:29Z</time>
      </trkpt>
      <trkpt lat="43.74329" lon="3.54219">
        <ele>315.7</ele>
        <time>2024-04-24T15:21:29Z</time>
      </trkpt>
      <trkpt lat="43.74279" lon="3.54283">
        <ele>309.3</ele>
        <time>2024-04-24T15:21:29Z</time>
      </trkpt>
      <trkpt lat="43.74236" lon="3.54358">
        <ele>297</ele>
        <time>2024-04-24T15:21:29Z</time>
      </trkpt>
      <trkpt lat="43.74225" lon="3.54395">
        <ele>294.1</ele>
        <time>2024-04-24T15:21:29Z</time>
      </trkpt>
      <trkpt lat="43.74199" lon="3.54425">
        <ele>287.5</ele>
        <time>2024-04-24T15:21:29Z</time>
      </trkpt>
      <trkpt lat="43.74183" lon="3.54388">
        <ele>281.1</ele>
        <time>2024-04-24T15:21:29Z</time>
      </trkpt>
      <trkpt lat="43.74188" lon="3.54352">
        <ele>280.3</ele>
        <time>2024-04-24T15:21:29Z</time>
      </trkpt>
      <trkpt lat="43.74183" lon="3.54315">
        <ele>277.7</ele>
        <time>2024-04-24T15:21:29Z</time>
      </trkpt>
      <trkpt lat="43.74157" lon="3.54341">
        <ele>271.5</ele>
        <time>2024-04-24T15:21:29Z</time>
      </trkpt>
      <trkpt lat="43.74132" lon="3.54377">
        <ele>269.2</ele>
        <time>2024-04-24T15:21:29Z</time>
      </trkpt>
      <trkpt lat="43.74131" lon="3.54414">
        <ele>270</ele>
        <time>2024-04-24T15:21:29Z</time>
      </trkpt>
      <trkpt lat="43.74138" lon="3.5445">
        <ele>273.4</ele>
        <time>2024-04-24T15:21:29Z</time>
      </trkpt>
      <trkpt lat="43.74154" lon="3.54487">
        <ele>277.1</ele>
        <time>2024-04-24T15:21:29Z</time>
      </trkpt>
      <trkpt lat="43.74154" lon="3.54523">
        <ele>279.9</ele>
        <time>2024-04-24T15:21:29Z</time>
      </trkpt>
      <trkpt lat="43.7416" lon="3.5456">
        <ele>282.9</ele>
        <time>2024-04-24T15:21:29Z</time>
      </trkpt>
      <trkpt lat="43.74213" lon="3.54618">
        <ele>289.5</ele>
        <time>2024-04-24T15:21:29Z</time>
      </trkpt>
      <trkpt lat="43.74374" lon="3.54671">
        <ele>285.4</ele>
        <time>2024-04-24T15:21:29Z</time>
      </trkpt>
      <trkpt lat="43.744" lon="3.54695">
        <ele>281</ele>
        <time>2024-04-24T15:21:29Z</time>
      </trkpt>
      <trkpt lat="43.74427" lon="3.54701">
        <ele>274.4</ele>
        <time>2024-04-24T15:21:29Z</time>
      </trkpt>
      <trkpt lat="43.7447" lon="3.54629">
        <ele>269.8</ele>
        <time>2024-04-24T15:21:29Z</time>
      </trkpt>
      <trkpt lat="43.74497" lon="3.54631">
        <ele>263.7</ele>
        <time>2024-04-24T15:21:29Z</time>
      </trkpt>
      <trkpt lat="43.7449" lon="3.54667">
        <ele>259.6</ele>
        <time>2024-04-24T15:21:29Z</time>
      </trkpt>
      <trkpt lat="43.7452" lon="3.5474">
        <ele>268.8</ele>
        <time>2024-04-24T15:21:29Z</time>
      </trkpt>
      <trkpt lat="43.74518" lon="3.5485">
        <ele>284.6</ele>
        <time>2024-04-24T15:21:29Z</time>
      </trkpt>
      <trkpt lat="43.74545" lon="3.54877">
        <ele>283.6</ele>
        <time>2024-04-24T15:21:29Z</time>
      </trkpt>
      <trkpt lat="43.74571" lon="3.5488">
        <ele>280.5</ele>
        <time>2024-04-24T15:21:29Z</time>
      </trkpt>
      <trkpt lat="43.74597" lon="3.54873">
        <ele>282.3</ele>
        <time>2024-04-24T15:21:29Z</time>
      </trkpt>
      <trkpt lat="43.74613" lon="3.5491">
        <ele>284.5</ele>
        <time>2024-04-24T15:21:29Z</time>
      </trkpt>
      <trkpt lat="43.74692" lon="3.54914">
        <ele>301.8</ele>
        <time>2024-04-24T15:21:29Z</time>
      </trkpt>
      <trkpt lat="43.74745" lon="3.5489">
        <ele>310.1</ele>
        <time>2024-04-24T15:21:29Z</time>
      </trkpt>
      <trkpt lat="43.7485" lon="3.54888">
        <ele>301</ele>
        <time>2024-04-24T15:21:29Z</time>
      </trkpt>
      <trkpt lat="43.74881" lon="3.54907">
        <ele>292</ele>
        <time>2024-04-24T15:21:29Z</time>
      </trkpt>
      <trkpt lat="43.74907" lon="3.54929">
        <ele>289.5</ele>
        <time>2024-04-24T15:21:29Z</time>
      </trkpt>
      <trkpt lat="43.74932" lon="3.54965">
        <ele>284.9</ele>
        <time>2024-04-24T15:21:29Z</time>
      </trkpt>
      <trkpt lat="43.74958" lon="3.54968">
        <ele>283.1</ele>
        <time>2024-04-24T15:21:29Z</time>
      </trkpt>
      <trkpt lat="43.74985" lon="3.5495">
        <ele>283</ele>
        <time>2024-04-24T15:21:29Z</time>
      </trkpt>
      <trkpt lat="43.74994" lon="3.54989">
        <ele>283.4</ele>
        <time>2024-04-24T15:21:29Z</time>
      </trkpt>
      <trkpt lat="43.74986" lon="3.55026">
        <ele>263</ele>
        <time>2024-04-24T15:21:29Z</time>
      </trkpt>
      <trkpt lat="43.75109" lon="3.55244">
        <ele>304.1</ele>
        <time>2024-04-24T15:21:29Z</time>
      </trkpt>
      <trkpt lat="43.75162" lon="3.55268">
        <ele>309.7</ele>
        <time>2024-04-24T15:21:29Z</time>
      </trkpt>
      <trkpt lat="43.75241" lon="3.55242">
        <ele>312</ele>
        <time>2024-04-24T15:21:29Z</time>
      </trkpt>
      <trkpt lat="43.75265" lon="3.55206">
        <ele>312.8</ele>
        <time>2024-04-24T15:21:29Z</time>
      </trkpt>
      <trkpt lat="43.75292" lon="3.55206">
        <ele>309.1</ele>
        <time>2024-04-24T15:21:29Z</time>
      </trkpt>
      <trkpt lat="43.7533" lon="3.55247">
        <ele>308.5</ele>
        <time>2024-04-24T15:21:29Z</time>
      </trkpt>
      <trkpt lat="43.75341" lon="3.55283">
        <ele>313.6</ele>
        <time>2024-04-24T15:21:29Z</time>
      </trkpt>
      <trkpt lat="43.75352" lon="3.55319">
        <ele>320.9</ele>
        <time>2024-04-24T15:21:29Z</time>
      </trkpt>
      <trkpt lat="43.75372" lon="3.55356">
        <ele>328.1</ele>
        <time>2024-04-24T15:21:29Z</time>
      </trkpt>
      <trkpt lat="43.75451" lon="3.55397">
        <ele>332.7</ele>
        <time>2024-04-24T15:21:29Z</time>
      </trkpt>
      <trkpt lat="43.75478" lon="3.55403">
        <ele>332.5</ele>
        <time>2024-04-24T15:21:29Z</time>
      </trkpt>
      <trkpt lat="43.75504" lon="3.55388">
        <ele>332.7</ele>
        <time>2024-04-24T15:21:29Z</time>
      </trkpt>
      <trkpt lat="43.7553" lon="3.55384">
        <ele>330.3</ele>
        <time>2024-04-24T15:21:29Z</time>
      </trkpt>
      <trkpt lat="43.75583" lon="3.55356">
        <ele>332.2</ele>
        <time>2024-04-24T15:21:29Z</time>
      </trkpt>
      <trkpt lat="43.75609" lon="3.5535">
        <ele>329</ele>
        <time>2024-04-24T15:21:29Z</time>
      </trkpt>
      <trkpt lat="43.75662" lon="3.55356">
        <ele>325.5</ele>
        <time>2024-04-24T15:21:29Z</time>
      </trkpt>
      <trkpt lat="43.75681" lon="3.55395">
        <ele>327.6</ele>
        <time>2024-04-24T15:21:29Z</time>
      </trkpt>
      <trkpt lat="43.75681" lon="3.55433">
        <ele>329.3</ele>
        <time>2024-04-24T15:21:29Z</time>
      </trkpt>
      <trkpt lat="43.75673" lon="3.55508">
        <ele>335.9</ele>
        <time>2024-04-24T15:21:29Z</time>
      </trkpt>
      <trkpt lat="43.75684" lon="3.55545">
        <ele>340.6</ele>
        <time>2024-04-24T15:21:29Z</time>
      </trkpt>
      <trkpt lat="43.75687" lon="3.55628">
        <ele>347</ele>
        <time>2024-04-24T15:21:29Z</time>
      </trkpt>
      <trkpt lat="43.75692" lon="3.55665">
        <ele>349.1</ele>
        <time>2024-04-24T15:21:29Z</time>
      </trkpt>
      <trkpt lat="43.7569" lon="3.55701">
        <ele>346.3</ele>
        <time>2024-04-24T15:21:29Z</time>
      </trkpt>
      <trkpt lat="43.75701" lon="3.55774">
        <ele>344</ele>
        <time>2024-04-24T15:21:29Z</time>
      </trkpt>
      <trkpt lat="43.75695" lon="3.55813">
        <ele>344</ele>
        <time>2024-04-24T15:21:29Z</time>
      </trkpt>
      <trkpt lat="43.75695" lon="3.55849">
        <ele>343.4</ele>
        <time>2024-04-24T15:21:29Z</time>
      </trkpt>
      <trkpt lat="43.75743" lon="3.55959">
        <ele>338.4</ele>
        <time>2024-04-24T15:21:29Z</time>
      </trkpt>
      <trkpt lat="43.75769" lon="3.55991">
        <ele>337.5</ele>
        <time>2024-04-24T15:21:29Z</time>
      </trkpt>
      <trkpt lat="43.75788" lon="3.56064">
        <ele>333.4</ele>
        <time>2024-04-24T15:21:29Z</time>
      </trkpt>
      <trkpt lat="43.75806" lon="3.56101">
        <ele>335.5</ele>
        <time>2024-04-24T15:21:29Z</time>
      </trkpt>
      <trkpt lat="43.75816" lon="3.56212">
        <ele>328.9</ele>
        <time>2024-04-24T15:21:29Z</time>
      </trkpt>
      <trkpt lat="43.75799" lon="3.56249">
        <ele>326.3</ele>
        <time>2024-04-24T15:21:29Z</time>
      </trkpt>
      <trkpt lat="43.75772" lon="3.56274">
        <ele>322.9</ele>
        <time>2024-04-24T15:21:29Z</time>
      </trkpt>
      <trkpt lat="43.75744" lon="3.56276">
        <ele>321</ele>
        <time>2024-04-24T15:21:29Z</time>
      </trkpt>
      <trkpt lat="43.75718" lon="3.56257">
        <ele>317.6</ele>
        <time>2024-04-24T15:21:29Z</time>
      </trkpt>
      <trkpt lat="43.75692" lon="3.56225">
        <ele>314.2</ele>
        <time>2024-04-24T15:21:29Z</time>
      </trkpt>
      <trkpt lat="43.75665" lon="3.56225">
        <ele>308.4</ele>
        <time>2024-04-24T15:21:29Z</time>
      </trkpt>
      <trkpt lat="43.75639" lon="3.56242">
        <ele>301.8</ele>
        <time>2024-04-24T15:21:29Z</time>
      </trkpt>
      <trkpt lat="43.75611" lon="3.56352">
        <ele>287.9</ele>
        <time>2024-04-24T15:21:29Z</time>
      </trkpt>
      <trkpt lat="43.75585" lon="3.56362">
        <ele>276.3</ele>
        <time>2024-04-24T15:21:29Z</time>
      </trkpt>
      <trkpt lat="43.75577" lon="3.56399">
        <ele>263.8</ele>
        <time>2024-04-24T15:21:29Z</time>
      </trkpt>
      <trkpt lat="43.75592" lon="3.56435">
        <ele>258.3</ele>
        <time>2024-04-24T15:21:29Z</time>
      </trkpt>
      <trkpt lat="43.75566" lon="3.56416">
        <ele>253.1</ele>
        <time>2024-04-24T15:21:29Z</time>
      </trkpt>
      <trkpt lat="43.75574" lon="3.56452">
        <ele>244.5</ele>
        <time>2024-04-24T15:21:29Z</time>
      </trkpt>
      <trkpt lat="43.7556" lon="3.56489">
        <ele>231.2</ele>
        <time>2024-04-24T15:21:29Z</time>
      </trkpt>
      <trkpt lat="43.75533" lon="3.5647">
        <ele>220.3</ele>
        <time>2024-04-24T15:21:29Z</time>
      </trkpt>
      <trkpt lat="43.75547" lon="3.56545">
        <ele>213.2</ele>
        <time>2024-04-24T15:21:29Z</time>
      </trkpt>
      <trkpt lat="43.75504" lon="3.56472">
        <ele>204.3</ele>
        <time>2024-04-24T15:21:29Z</time>
      </trkpt>
      <trkpt lat="43.75451" lon="3.56437">
        <ele>199.2</ele>
        <time>2024-04-24T15:21:29Z</time>
      </trkpt>
      <trkpt lat="43.7543" lon="3.56401">
        <ele>199</ele>
        <time>2024-04-24T15:21:29Z</time>
      </trkpt>
      <trkpt lat="43.75377" lon="3.56362">
        <ele>193.7</ele>
        <time>2024-04-24T15:21:29Z</time>
      </trkpt>
      <trkpt lat="43.75326" lon="3.56294">
        <ele>189.6</ele>
        <time>2024-04-24T15:21:29Z</time>
      </trkpt>
      <trkpt lat="43.75299" lon="3.56294">
        <ele>186.3</ele>
        <time>2024-04-24T15:21:29Z</time>
      </trkpt>
      <trkpt lat="43.75273" lon="3.56283">
        <ele>173.2</ele>
        <time>2024-04-24T15:21:29Z</time>
      </trkpt>
      <trkpt lat="43.75247" lon="3.56261">
        <ele>166.1</ele>
        <time>2024-04-24T15:21:29Z</time>
      </trkpt>
      <trkpt lat="43.7522" lon="3.56246">
        <ele>165.5</ele>
        <time>2024-04-24T15:21:29Z</time>
      </trkpt>
      <trkpt lat="43.75141" lon="3.56154">
        <ele>141.4</ele>
        <time>2024-04-24T15:21:29Z</time>
      </trkpt>
      <trkpt lat="43.75089" lon="3.56135">
        <ele>135.3</ele>
        <time>2024-04-24T15:21:29Z</time>
      </trkpt>
      <trkpt lat="43.75062" lon="3.56131">
        <ele>130.2</ele>
        <time>2024-04-24T15:21:29Z</time>
      </trkpt>
      <trkpt lat="43.75036" lon="3.56101">
        <ele>115.9</ele>
        <time>2024-04-24T15:21:29Z</time>
      </trkpt>
      <trkpt lat="43.75017" lon="3.56137">
        <ele>116.9</ele>
        <time>2024-04-24T15:21:29Z</time>
      </trkpt>
      <trkpt lat="43.75013" lon="3.56173">
        <ele>112.6</ele>
        <time>2024-04-24T15:21:29Z</time>
      </trkpt>
      <trkpt lat="43.74986" lon="3.56195">
        <ele>102.6</ele>
        <time>2024-04-24T15:21:29Z</time>
      </trkpt>
      <trkpt lat="43.7496" lon="3.56201">
        <ele>101.4</ele>
        <time>2024-04-24T15:21:29Z</time>
      </trkpt>
      <trkpt lat="43.74934" lon="3.56195">
        <ele>98.6</ele>
        <time>2024-04-24T15:21:29Z</time>
      </trkpt>
      <trkpt lat="43.74907" lon="3.5618">
        <ele>99.2</ele>
        <time>2024-04-24T15:21:29Z</time>
      </trkpt>
      <trkpt lat="43.74828" lon="3.56094">
        <ele>92.2</ele>
        <time>2024-04-24T15:21:29Z</time>
      </trkpt>
      <trkpt lat="43.74802" lon="3.56077">
        <ele>89.7</ele>
        <time>2024-04-24T15:21:29Z</time>
      </trkpt>
      <trkpt lat="43.74774" lon="3.56086">
        <ele>88.5</ele>
        <time>2024-04-24T15:21:29Z</time>
      </trkpt>
      <trkpt lat="43.74748" lon="3.56118">
        <ele>95</ele>
        <time>2024-04-24T15:21:29Z</time>
      </trkpt>
      <trkpt lat="43.74721" lon="3.56137">
        <ele>91.4</ele>
        <time>2024-04-24T15:21:29Z</time>
      </trkpt>
      <trkpt lat="43.74695" lon="3.56148">
        <ele>86.4</ele>
        <time>2024-04-24T15:21:29Z</time>
      </trkpt>
      <trkpt lat="43.74669" lon="3.56171">
        <ele>84.8</ele>
        <time>2024-04-24T15:21:29Z</time>
      </trkpt>
      <trkpt lat="43.74645" lon="3.56208">
        <ele>84.6</ele>
        <time>2024-04-24T15:21:29Z</time>
      </trkpt>
      <trkpt lat="43.74639" lon="3.56244">
        <ele>83.3</ele>
        <time>2024-04-24T15:21:29Z</time>
      </trkpt>
      <trkpt lat="43.7465" lon="3.56281">
        <ele>84.6</ele>
        <time>2024-04-24T15:21:29Z</time>
      </trkpt>
      <trkpt lat="43.7465" lon="3.56317">
        <ele>86</ele>
        <time>2024-04-24T15:21:29Z</time>
      </trkpt>
      <trkpt lat="43.74624" lon="3.56341">
        <ele>84</ele>
        <time>2024-04-24T15:21:29Z</time>
      </trkpt>
      <trkpt lat="43.74597" lon="3.5633">
        <ele>84</ele>
        <time>2024-04-24T15:21:29Z</time>
      </trkpt>
      <trkpt lat="43.74466" lon="3.5633">
        <ele>79.1</ele>
        <time>2024-04-24T15:21:29Z</time>
      </trkpt>
      <trkpt lat="43.74439" lon="3.56322">
        <ele>73.8</ele>
        <time>2024-04-24T15:21:29Z</time>
      </trkpt>
      <trkpt lat="43.744" lon="3.56467">
        <ele>78.1</ele>
        <time>2024-04-24T15:21:29Z</time>
      </trkpt>
      <trkpt lat="43.74374" lon="3.56506">
        <ele>80</ele>
        <time>2024-04-24T15:21:29Z</time>
      </trkpt>
      <trkpt lat="43.74348" lon="3.56521">
        <ele>76.5</ele>
        <time>2024-04-24T15:21:29Z</time>
      </trkpt>
      <trkpt lat="43.74335" lon="3.56558">
        <ele>76.3</ele>
        <time>2024-04-24T15:21:29Z</time>
      </trkpt>
      <trkpt lat="43.74342" lon="3.56594">
        <ele>76.7</ele>
        <time>2024-04-24T15:21:29Z</time>
      </trkpt>
      <trkpt lat="43.74417" lon="3.56742">
        <ele>74.3</ele>
        <time>2024-04-24T15:21:29Z</time>
      </trkpt>
      <trkpt lat="43.7447" lon="3.56802">
        <ele>75.7</ele>
        <time>2024-04-24T15:21:29Z</time>
      </trkpt>
      <trkpt lat="43.74614" lon="3.57096">
        <ele>75.4</ele>
        <time>2024-04-24T15:21:29Z</time>
      </trkpt>
      <trkpt lat="43.74642" lon="3.57208">
        <ele>73.4</ele>
        <time>2024-04-24T15:21:29Z</time>
      </trkpt>
      <trkpt lat="43.74729" lon="3.57379">
        <ele>83.3</ele>
        <time>2024-04-24T15:21:29Z</time>
      </trkpt>
      <trkpt lat="43.74755" lon="3.57414">
        <ele>82.6</ele>
        <time>2024-04-24T15:21:29Z</time>
      </trkpt>
      <trkpt lat="43.74766" lon="3.5745">
        <ele>77.3</ele>
        <time>2024-04-24T15:21:29Z</time>
      </trkpt>
      <trkpt lat="43.74895" lon="3.57603">
        <ele>76.9</ele>
        <time>2024-04-24T15:21:29Z</time>
      </trkpt>
      <trkpt lat="43.74923" lon="3.57678">
        <ele>74.2</ele>
        <time>2024-04-24T15:21:29Z</time>
      </trkpt>
      <trkpt lat="43.74949" lon="3.57836">
        <ele>77.9</ele>
        <time>2024-04-24T15:21:29Z</time>
      </trkpt>
      <trkpt lat="43.74948" lon="3.57877">
        <ele>81.1</ele>
        <time>2024-04-24T15:21:29Z</time>
      </trkpt>
      <trkpt lat="43.74883" lon="3.58068">
        <ele>78.4</ele>
        <time>2024-04-24T15:21:29Z</time>
      </trkpt>
      <trkpt lat="43.74876" lon="3.58105">
        <ele>79.4</ele>
        <time>2024-04-24T15:21:29Z</time>
      </trkpt>
      <trkpt lat="43.74864" lon="3.58141">
        <ele>79.3</ele>
        <time>2024-04-24T15:21:29Z</time>
      </trkpt>
      <trkpt lat="43.74811" lon="3.58201">
        <ele>77.3</ele>
        <time>2024-04-24T15:21:29Z</time>
      </trkpt>
      <trkpt lat="43.74793" lon="3.58242">
        <ele>76.4</ele>
        <time>2024-04-24T15:21:29Z</time>
      </trkpt>
      <trkpt lat="43.7478" lon="3.58296">
        <ele>78.6</ele>
        <time>2024-04-24T15:21:29Z</time>
      </trkpt>
      <trkpt lat="43.74624" lon="3.58826">
        <ele>81.3</ele>
        <time>2024-04-24T15:21:29Z</time>
      </trkpt>
      <trkpt lat="43.74621" lon="3.58864">
        <ele>79.5</ele>
        <time>2024-04-24T15:21:29Z</time>
      </trkpt>
      <trkpt lat="43.74633" lon="3.58901">
        <ele>79</ele>
        <time>2024-04-24T15:21:29Z</time>
      </trkpt>
      <trkpt lat="43.74979" lon="3.59122">
        <ele>83.5</ele>
        <time>2024-04-24T15:21:29Z</time>
      </trkpt>
      <trkpt lat="43.74999" lon="3.59158">
        <ele>83.2</ele>
        <time>2024-04-24T15:21:29Z</time>
      </trkpt>
      <trkpt lat="43.75031" lon="3.59242">
        <ele>80.5</ele>
        <time>2024-04-24T15:21:29Z</time>
      </trkpt>
    </trkseg>
  </trk>
</gpx>